Location: Ffald-y-Brenin
(52.0833°N, 4.0000°W)
Time: 11:09:39
(UTC+00:00)

ATLAS 2AS CENTAUR R/B - Pass Details

Date: 18 February 2020
Orbit: 929 x 1283 km, 63.7° (Epoch: 05 April)

Event Time Altitude Azimuth Distance (km) Brightness Sun altitude
Exits shadow 05:14:18 14° 314° (NW) 2,945 4.6 -20.9°
Maximum altitude 05:20:44 43° 21° (NNE) 1,657 3.9 -19.9°
Drops below altitude 10° 05:27:44 10° 91° (E) 3,058 6.3 -18.8°
Sets 05:30:31 0° 99° (E) 3,965 7.2 -18.4°
